Weather in San Martin De Los Andes

Argentina     40°09′22″S   71°20′27″W
temp.,
°C
wind,
m/s
gust,
m/s
humid.,
%
clouds,
%
prec.,
mm/h
press.,
hPa
HPBL,
m
12 april, mon
mon1200:00+6w339718 0.0 101865
03:00+5w339821 0.0 101861
06:00+5w339614 0.0 101753
09:00+6w34920 0.0 101875
12:00+13w34554 0.0 1017660
15:00+17w47345 0.0 10161206
18:00+15w36405 0.0 1016943
21:00+8wsw33755 0.0 102039
13 april, tue
tue1300:00+7wsw32850 0.0 102030
03:00+8sw22750 0.0 101920
06:00+8s11675 0.0 101810
09:00+9e11585 0.0 101810
12:00+17ne223523 0.0 1016459
15:00+20nne32301 0.0 1013857
18:00+18nne22330 0.0 1012348
21:00+12sse11436 0.0 101310
14 april, wed
wed1400:00+11w11449 0.0 101210
03:00+9wsw3261100 0.0 101220
06:00+7wsw3377100 0.0 101136
09:00+7w34820 0.0 101267
12:00+14wnw4105190 0.0 10111135
15:00+16w614300 0.0 10101674
18:00+13w5134171 0.0 10111543
21:00+9w3460100 0.0 1014218
15 april, thu
thu1500:00+6w348395 0.0 1016147
03:00+4w339833 0.0 101766
06:00+4wsw229615 0.0 101743
09:00+5wsw22840 0.0 101742
12:00+12wnw33470 0.0 1014701
15:00+15wnw36290 0.0 10121548
18:00+14w363993 0.0 10121337
21:00+6w3388100 0.0 101652
16 april, fri
fri1600:00+4wsw33930 0.0 101948
03:00+3wsw32850 0.0 101933
06:00+3sw326429 0.0 101928
09:00+4sw2249100 0.0 102029
12:00+12nnw1126100 0.0 1017494
15:00+15nnw232051 0.0 10151346
18:00+14n2226100 0.0 1015162
21:00+8sw1141100 0.0 101710